[[{"header":{"parameterUnit":"m.s-1","parameterCategory":1,"la1":30.2991,"la2":30.254,"lo1":-89.0895,"lo2":-89.0444,"dy":0.0017,"dx":0.0017,"nx":28,"ny":28,"refTime":"2025-11-17T09:00:00:Z","depth":0,"parameterNumber":2,"parameterNumberName":"U-component_of_WINDS"},"data":[0,0,0,0,0,0,0,0,0,0,0,0,0,0,0,0,0,0,0,0,0,0,0,0,0,0,0,0,0,0,0,0,0,0,0,0,0,0,0,0,0,0,0,0,0,0,0,0,0,0,0,0,0,0,0,0,0,0,0.2665,0.2666,0,0.2732,0.2733,0.2733,0.278,0.278,0.2781,0.2781,0.2852,0.2854,0.2856,0,0,0,0,0,0,0,0,0,0,0,0,0,0.2581,0.2582,0.2665,0.2666,0.2666,0.2732,0.2733,0.2733,0.278,0.278,0.2781,0.2781,0.2852,0.2854,0.2856,0,0,0,0,0,0,0,0,0,0,0,0,0,0.263,0.2583,0.2665,0.2697,0.2701,0.2731,0.2733,0.2734,0.278,0.278,0.2781,0.2781,0.2851,0.2854,0.2856,0.286,0,0,0.2863,0.2864,0,0,0,0,0,0,0,0,0.2627,0.2633,0.2692,0.2695,0.2699,0.2748,0.2729,0.2776,0.278,0.275,0.2781,0.2782,0.2817,0.2823,0.2834,0.2863,0.2866,0.2863,0.2865,0.2866,0.2866,0,0,0,0,0,0,0,0.2624,0.263,0.2691,0.2693,0.2697,0.271,0.2718,0.2738,0.278,0.2753,0.2756,0.2763,0.282,0.2832,0.2836,0.2867,0.2863,0.2865,0.2867,0.2868,0.2906,0.2906,0,0,0,0,0,0,0.2615,0.2627,0.2689,0.2693,0.2664,0.2711,0.272,0.2732,0.278,0.2788,0.2763,0.2765,0.2827,0.2833,0.2839,0.2848,0.2866,0.2868,0.2869,0.2907,0.2906,0.2906,0,0,0,0,0,0,0.2613,0.262,0.2687,0.2661,0.2671,0.2712,0.2726,0.2733,0.2745,0.2788,0.2796,0.2767,0.2828,0.2836,0.2855,0.2851,0.2869,0.2871,0.2907,0.2906,0.2906,0.2866,0,0,0,0,0,0,0.261,0.2619,0.2619,0.2661,0.2672,0.27,0.2725,0.2734,0.2749,0.2752,0.2794,0.2801,0.2829,0.2851,0.2857,0.2855,0.2873,0.2908,0.2907,0.2906,0.2867,0.2864,0.286,0,0,0,0,0,0.2607,0.2605,0.2619,0.2626,0.2673,0.2699,0.2706,0.2737,0.2748,0.275,0.2778,0.28,0.2851,0.2852,0.286,0.2858,0.2908,0.2907,0.2906,0.2869,0.2864,0.2861,0,0,0,0,0,0,0.2563,0.2611,0.2627,0.2639,0.2665,0.2707,0.271,0.2731,0.2755,0.2757,0.2796,0.2805,0.2821,0.2842,0.2843,0.2866,0.2882,0.2883,0.2851,0.2848,0.2844,0.2839,0.2875,0,0,0,0,0,0.2554,0.257,0.2612,0.2619,0.2631,0.2668,0.2681,0.2703,0.2731,0.2743,0.2772,0.28,0.2822,0.2836,0.2859,0.2871,0.2882,0.2874,0.287,0.2867,0.2867,0.2877,0.2875,0.2903,0.2903,0.2903,0,0,0.2537,0.2566,0.2574,0.2611,0.2633,0.265,0.2677,0.2693,0.2707,0.2746,0.2765,0.2788,0.2822,0.2838,0.2846,0.2856,0.2862,0.2866,0.2863,0.2865,0.2876,0.2873,0.2871,0.2902,0.2902,0.2902,0,0,0.2515,0.2538,0.2546,0.2568,0.2602,0.2627,0.2629,0.2669,0.2686,0.2706,0.2736,0.2754,0.2791,0.2814,0.2831,0.282,0.2842,0.2827,0.2809,0.2818,0.2816,0.2814,0.2811,0.281,0.2827,0.2827,0.2827,0,0.249,0.2515,0.2548,0.2563,0.258,0.2615,0.2625,0.2646,0.2685,0.2696,0.2706,0.2755,0.278,0.2803,0.2801,0.2813,0.2818,0.2822,0.2813,0.2812,0.2811,0.2808,0.2807,0.2825,0.2825,0.2825,0.2825,0,0.2483,0.2501,0.2504,0.2541,0.2558,0.257,0.2607,0.262,0.2641,0.2666,0.2688,0.272,0.275,0.2758,0.2778,0.2784,0.2789,0.2805,0.2823,0.2805,0.2804,0.2803,0.2822,0.2822,0.2823,0.2823,0,0,0.2433,0.249,0.249,0.2509,0.2549,0.2564,0.258,0.2609,0.262,0.2647,0.2662,0.2694,0.271,0.2729,0.2753,0.2761,0.2753,0.2777,0.2779,0.2772,0.2763,0.275,0.2749,0.2767,0.2767,0.2767,0.276,0,0.2418,0.2445,0.2476,0.2494,0.2511,0.2547,0.256,0.2588,0.2612,0.2632,0.2659,0.2681,0.27,0.2712,0.2722,0.2751,0.2751,0.2752,0.2783,0.2784,0.2773,0.2748,0.2734,0.2726,0.276,0.276,0.276,0,0.2402,0.2427,0.2446,0.2487,0.2496,0.2507,0.2538,0.2556,0.2589,0.2606,0.2628,0.2654,0.2674,0.2689,0.2718,0.2719,0.2733,0.275,0.2751,0.2755,0.277,0.2752,0.2724,0.2723,0.2759,0.2759,0.2759,0,0.2365,0.2404,0.242,0.2435,0.2483,0.249,0.2511,0.2544,0.2561,0.2588,0.26,0.2629,0.2646,0.2669,0.2704,0.2711,0.273,0.2747,0.2746,0.2745,0.2748,0.2747,0.2722,0.2757,0.2757,0.2757,0.2757,0,0.2344,0.2355,0.2404,0.2415,0.2428,0.2465,0.2478,0.2502,0.2532,0.2549,0.2582,0.2598,0.2642,0.2663,0.2691,0.2712,0.2719,0.2734,0.2742,0.2731,0.2729,0.2742,0.2743,0.2756,0.2756,0.2757,0.2757,0,0.2304,0.2338,0.2359,0.2403,0.2415,0.2423,0.2461,0.2474,0.2501,0.2522,0.2529,0.2572,0.2599,0.2636,0.2674,0.2693,0.2711,0.2722,0.2699,0.2703,0.27,0.27,0.2682,0.2682,0.2716,0.2715,0.2715,0,0.2289,0.2298,0.2343,0.2356,0.2376,0.2397,0.2414,0.2452,0.2469,0.2508,0.2516,0.2546,0.2571,0.2614,0.2649,0.268,0.2692,0.2684,0.2697,0.2687,0.2693,0.2692,0.2694,0.268,0.268,0.2679,0.2679,0,0.2258,0.2274,0.2297,0.2326,0.2346,0.2371,0.2398,0.2407,0.2451,0.2469,0.2496,0.2516,0.2556,0.2586,0.2622,0.2645,0.267,0.2675,0.2676,0.2666,0.2653,0.2661,0.269,0.2675,0.2675,0.2675,0.2676,0.2676,0.223,0.224,0.2274,0.2299,0.2323,0.2348,0.2362,0.2391,0.2415,0.2449,0.2471,0.2498,0.2534,0.2584,0.2607,0.263,0.264,0.2641,0.2642,0.2642,0.2639,0.2649,0.2637,0.2637,0.2637,0.2637,0.2637,0,0.2201,0.2225,0.2248,0.2284,0.2304,0.2326,0.2357,0.2373,0.2396,0.2427,0.2451,0.2485,0.2514,0.2553,0.2586,0.2597,0.2609,0.2605,0.2604,0.261,0.2628,0.2624,0.2594,0.2594,0.2594,0.2594,0.2594,0.2594,0.2189,0.2207,0.2228,0.2261,0.2285,0.2311,0.2328,0.2352,0.2376,0.2411,0.2436,0.2461,0.2495,0.2531,0.256,0.2571,0.2582,0.2573,0.2588,0.2604,0.2608,0.2612,0.2608,0.2575,0.2575,0.2567,0.2567,0.2567]},{"header":{"parameterUnit":"m.s-1","parameterCategory":1,"la1":30.2991,"la2":30.254,"lo1":-89.0895,"lo2":-89.0444,"dy":0.0017,"dx":0.0017,"nx":28,"ny":28,"refTime":"2025-11-17T09:00:00:Z","depth":0,"parameterNumber":3,"parameterNumberName":"V-component_of_WINDS"},"data":[0,0,0,0,0,0,0,0,0,0,0,0,0,0,0,0,0,0,0,0,0,0,0,0,0,0,0,0,0,0,0,0,0,0,0,0,0,0,0,0,0,0,0,0,0,0,0,0,0,0,0,0,0,0,0,0,0,0,-0.6361,-0.636,0,-0.6266,-0.6265,-0.6264,-0.6216,-0.6216,-0.6216,-0.6216,-0.6112,-0.6109,-0.6106,0,0,0,0,0,0,0,0,0,0,0,0,0,-0.6496,-0.6493,-0.6362,-0.636,-0.6359,-0.6266,-0.6265,-0.6264,-0.6216,-0.6216,-0.6216,-0.6216,-0.6112,-0.6109,-0.6106,0,0,0,0,0,0,0,0,0,0,0,0,0,-0.6422,-0.6493,-0.6362,-0.6324,-0.632,-0.6267,-0.6265,-0.6263,-0.6216,-0.6216,-0.6216,-0.6216,-0.6114,-0.611,-0.6105,-0.608,0,0,-0.6093,-0.6091,0,0,0,0,0,0,0,0,-0.6427,-0.6417,-0.6331,-0.6327,-0.6322,-0.6253,-0.6274,-0.6202,-0.6216,-0.6255,-0.6216,-0.6216,-0.6158,-0.615,-0.6132,-0.6075,-0.6071,-0.6092,-0.609,-0.6088,-0.6087,0,0,0,0,0,0,0,-0.6432,-0.6421,-0.6324,-0.633,-0.6324,-0.631,-0.63,-0.626,-0.6208,-0.6252,-0.6248,-0.6238,-0.6156,-0.6136,-0.6129,-0.6069,-0.6093,-0.6089,-0.6086,-0.6085,-0.5985,-0.5985,0,0,0,0,0,0,-0.6444,-0.6426,-0.6327,-0.6321,-0.6375,-0.6308,-0.6296,-0.6275,-0.6208,-0.6198,-0.6238,-0.6236,-0.6143,-0.6134,-0.6126,-0.6091,-0.6088,-0.6084,-0.6082,-0.5985,-0.5985,-0.5985,0,0,0,0,0,0,-0.6447,-0.6435,-0.633,-0.6372,-0.6358,-0.6305,-0.6282,-0.6273,-0.6254,-0.6198,-0.6187,-0.6228,-0.6143,-0.6131,-0.6092,-0.6086,-0.6082,-0.6079,-0.5985,-0.5985,-0.5985,-0.6022,0,0,0,0,0,0,-0.6451,-0.6437,-0.6428,-0.6373,-0.6356,-0.6301,-0.6282,-0.6271,-0.6248,-0.6244,-0.6186,-0.6176,-0.6142,-0.6098,-0.6088,-0.6081,-0.6075,-0.5985,-0.5985,-0.5985,-0.6021,-0.6023,-0.6024,0,0,0,0,0,-0.6456,-0.6441,-0.6428,-0.6416,-0.6345,-0.63,-0.6291,-0.6254,-0.6248,-0.6237,-0.6201,-0.6178,-0.6089,-0.6095,-0.6082,-0.6074,-0.5986,-0.5985,-0.5985,-0.602,-0.6022,-0.6024,0,0,0,0,0,0,-0.6496,-0.6433,-0.6418,-0.6386,-0.6349,-0.6293,-0.6279,-0.6258,-0.622,-0.6218,-0.6172,-0.6159,-0.6124,-0.6095,-0.6102,-0.6045,-0.6035,-0.6032,-0.6066,-0.6067,-0.6069,-0.6077,-0.6072,0,0,0,0,0,-0.6501,-0.6473,-0.6419,-0.6395,-0.6378,-0.6332,-0.6311,-0.6286,-0.6245,-0.6229,-0.6189,-0.6149,-0.6111,-0.6088,-0.605,-0.6016,-0.6002,-0.6004,-0.6006,-0.6008,-0.6006,-0.5984,-0.5984,-0.5983,-0.5983,-0.5983,0,0,-0.6511,-0.6474,-0.6458,-0.6402,-0.6371,-0.634,-0.6319,-0.6288,-0.6264,-0.6223,-0.6184,-0.6154,-0.6105,-0.6068,-0.6049,-0.6043,-0.6003,-0.6007,-0.6009,-0.6006,-0.5983,-0.5983,-0.5984,-0.5983,-0.5983,-0.5983,0,0,-0.6514,-0.6484,-0.646,-0.643,-0.6383,-0.6352,-0.6347,-0.6293,-0.6272,-0.6233,-0.6201,-0.6171,-0.6108,-0.6075,-0.6049,-0.6039,-0.6016,-0.6028,-0.6037,-0.6017,-0.6017,-0.6017,-0.6012,-0.6011,-0.6026,-0.6026,-0.6026,0,-0.6532,-0.6487,-0.645,-0.6421,-0.6397,-0.6361,-0.6335,-0.6306,-0.6249,-0.6232,-0.6226,-0.6146,-0.611,-0.6064,-0.6062,-0.6043,-0.6033,-0.6034,-0.602,-0.602,-0.6019,-0.6013,-0.6012,-0.6028,-0.6028,-0.6027,-0.6027,0,-0.6511,-0.648,-0.6466,-0.6414,-0.6388,-0.6361,-0.6318,-0.6295,-0.6272,-0.6241,-0.62,-0.6157,-0.611,-0.6097,-0.6073,-0.6047,-0.6044,-0.603,-0.6018,-0.6021,-0.6015,-0.6013,-0.603,-0.603,-0.6029,-0.6029,0,0,-0.6536,-0.6464,-0.646,-0.6435,-0.6381,-0.6355,-0.6325,-0.6281,-0.6262,-0.6224,-0.6196,-0.6144,-0.613,-0.6101,-0.6073,-0.6055,-0.6048,-0.6043,-0.6041,-0.6045,-0.6015,-0.6026,-0.6024,-0.6033,-0.6033,-0.6032,-0.6019,0,-0.6531,-0.6478,-0.6444,-0.6404,-0.6374,-0.6339,-0.6312,-0.6275,-0.6245,-0.6213,-0.6179,-0.6143,-0.6128,-0.611,-0.6091,-0.6054,-0.6042,-0.6054,-0.6005,-0.6004,-0.6018,-0.6021,-0.6033,-0.6022,-0.6016,-0.6016,-0.6016,0,-0.6517,-0.6482,-0.644,-0.6388,-0.6374,-0.6352,-0.6308,-0.6279,-0.6235,-0.6214,-0.6182,-0.6154,-0.6119,-0.6111,-0.606,-0.6069,-0.6047,-0.6025,-0.6024,-0.6017,-0.601,-0.6014,-0.6018,-0.6016,-0.6012,-0.6012,-0.6012,0,-0.6539,-0.648,-0.6447,-0.6428,-0.6367,-0.6352,-0.6325,-0.6282,-0.6257,-0.6218,-0.6201,-0.6157,-0.6133,-0.6099,-0.6059,-0.6057,-0.6012,-0.6001,-0.5992,-0.5993,-0.5983,-0.5984,-0.5983,-0.597,-0.597,-0.597,-0.597,0,-0.6536,-0.6511,-0.6456,-0.6436,-0.6406,-0.6366,-0.6337,-0.6307,-0.6269,-0.624,-0.6206,-0.618,-0.6129,-0.6095,-0.6063,-0.6025,-0.6015,-0.5995,-0.5987,-0.5998,-0.6,-0.5982,-0.5982,-0.597,-0.597,-0.597,-0.597,0,-0.6555,-0.6518,-0.6479,-0.6425,-0.6411,-0.6392,-0.6344,-0.6322,-0.629,-0.6255,-0.6244,-0.6193,-0.6152,-0.6109,-0.6052,-0.603,-0.5993,-0.5982,-0.6009,-0.6004,-0.5997,-0.5998,-0.5984,-0.5979,-0.5971,-0.5971,-0.5971,0,-0.6555,-0.6536,-0.648,-0.646,-0.6435,-0.6402,-0.6378,-0.6337,-0.6312,-0.626,-0.6243,-0.62,-0.6163,-0.6098,-0.6055,-0.6011,-0.5997,-0.5995,-0.599,-0.6002,-0.5996,-0.5998,-0.5995,-0.5997,-0.5997,-0.5998,-0.5998,0,-0.656,-0.6542,-0.6509,-0.6469,-0.6441,-0.6407,-0.6371,-0.6356,-0.6307,-0.628,-0.6239,-0.6211,-0.6153,-0.611,-0.6061,-0.603,-0.6005,-0.6,-0.5995,-0.6006,-0.6022,-0.6012,-0.6013,-0.6,-0.6,-0.6,-0.6,-0.5999,-0.6568,-0.6549,-0.6507,-0.6471,-0.644,-0.6408,-0.6384,-0.6351,-0.6316,-0.6268,-0.6245,-0.6203,-0.6158,-0.6089,-0.606,-0.6025,-0.6017,-0.6011,-0.6009,-0.6008,-0.601,-0.6029,-0.6015,-0.6015,-0.6015,-0.6015,-0.6015,0,-0.657,-0.6542,-0.6509,-0.6461,-0.6432,-0.6414,-0.6373,-0.6349,-0.6314,-0.6275,-0.624,-0.6191,-0.6149,-0.6102,-0.6056,-0.6037,-0.6024,-0.6026,-0.6027,-0.602,-0.602,-0.6028,-0.6037,-0.6037,-0.6037,-0.6037,-0.6037,-0.6037,-0.6568,-0.6534,-0.6511,-0.6461,-0.6432,-0.6393,-0.6371,-0.634,-0.6309,-0.6257,-0.6222,-0.6193,-0.615,-0.6101,-0.6061,-0.6048,-0.6032,-0.6037,-0.6021,-0.6022,-0.602,-0.6018,-0.6026,-0.6034,-0.6034,-0.6023,-0.6023,-0.6023]}]]